| time (UTC) | temp C | wind direction | speed KPH | gust KPH | rain 1hr cm | rain 24hr cm | rain mn cm | humidity % | barometer mb |
| 20260904112536 | -17 | 0.0 | 0.0 | 0.00 | 0.33 | 0.33 | 1009.4 | ||
| 20260904112035 | -17 | 0.0 | 0.0 | 0.00 | 0.33 | 0.33 | 1009.2 | ||
| 20260904111534 | -17 | 0.0 | 0.0 | 0.00 | 0.33 | 0.33 | 1009.2 | ||
| 20260904111016 | -17 | 0.0 | 0.0 | 0.00 | 0.33 | 0.33 | 1009.1 | ||
| 20260904110513 | -17 | 0.0 | 0.0 | 0.00 | 0.33 | 0.33 | 1009.2 | ||
| 20260904110012 | -17 | 0.0 | 0.0 | 0.00 | 0.33 | 0.33 | 1009.2 | ||
| 20260904105512 | -17 | 0.0 | 0.0 | 0.00 | 0.33 | 0.33 | 1009.1 | ||
| 20260904105009 | -17 | 0.0 | 0.0 | 0.00 | 0.33 | 0.33 | 1009.0 | ||
| 20260904104508 | -17 | 0.0 | 0.0 | 0.00 | 0.33 | 0.33 | 1008.9 | ||
| 20260904104049 | -17 | 0.0 | 0.0 | 0.00 | 0.33 | 0.33 | 1008.9 | ||
| 20260904103548 | -17 | 0.0 | 0.0 | 0.00 | 0.33 | 0.33 | 1009.1 | ||
| 20260904103046 | -17 | 0.0 | 0.0 | 0.00 | 0.33 | 0.33 | 1009.0 | ||
| 20260904102545 | -17 | 0.0 | 0.0 | 0.00 | 0.33 | 0.33 | 1008.9 | ||
| 20260904102048 | -17 | 0.0 | 0.0 | 0.00 | 0.33 | 0.33 | 1008.8 | ||
| 20260904101542 | -17 | 0.0 | 0.0 | 0.00 | 0.33 | 0.33 | 1008.8 | ||
| 20260904101023 | -17 | 0.0 | 0.0 | 0.00 | 0.33 | 0.33 | 1008.9 | ||
| 20260904100523 | -17 | 0.0 | 0.0 | 0.00 | 0.33 | 0.33 | 1008.9 | ||
| 20260904100020 | -17 | 0.0 | 0.0 | 0.00 | 0.33 | 0.33 | 1008.9 | ||
| 20260904095519 | -17 | 0.0 | 0.0 | 0.00 | 0.33 | 0.33 | 1009.0 | ||
| 20260904095018 | -17 | 0.0 | 0.0 | 0.00 | 0.33 | 0.33 | 1009.1 | ||
| 20260904094531 | 13 | 101 | 0.0 | 1.6 | 0.00 | 0.33 | 0.33 | 96 | 1009.0 |
| 20260904094058 | 13 | 101 | 0.0 | 1.6 | 0.00 | 0.33 | 0.33 | 96 | 1009.1 |
| 20260904093602 | 13 | 101 | 0.0 | 1.6 | 0.00 | 0.33 | 0.33 | 96 | 1008.9 |
| 20260904093058 | 13 | 50 | 0.0 | 1.6 | 0.00 | 0.33 | 0.33 | 97 | 1008.9 |
| 20260904092600 | 13 | 97 | 0.0 | 0.0 | 0.00 | 0.33 | 0.33 | 96 | 1008.9 |
| 20260904092057 | 13 | 94 | 0.0 | 0.0 | 0.00 | 0.33 | 0.33 | 96 | 1008.9 |
| 20260904091557 | 14 | 61 | 0.0 | 3.2 | 0.00 | 0.33 | 0.33 | 96 | 1009.0 |
| 20260904091038 | 14 | 42 | 0.0 | 3.2 | 0.00 | 0.33 | 0.33 | 96 | 1009.0 |
| 20260904090538 | 14 | 59 | 0.0 | 1.6 | 0.00 | 0.33 | 0.33 | 96 | 1009.0 |
| 20260904090039 | 14 | 57 | 0.0 | 0.0 | 0.00 | 0.33 | 0.33 | 96 | 1009.0 |
| 20260904085538 | 14 | 73 | 0.0 | 0.0 | 0.00 | 0.33 | 0.33 | 96 | 1009.0 |
| 20260904085039 | 14 | 73 | 0.0 | 0.0 | 0.00 | 0.33 | 0.33 | 96 | 1009.0 |
| 20260904084538 | 14 | 74 | 0.0 | 0.0 | 0.00 | 0.33 | 0.33 | 96 | 1008.9 |
| 20260904084020 | 14 | 73 | 0.0 | 0.0 | 0.00 | 0.33 | 0.33 | 96 | 1008.9 |
| 20260904083519 | 14 | 72 | 0.0 | 0.0 | 0.00 | 0.33 | 0.33 | 96 | 1008.9 |
| 20260904083019 | 14 | 110 | 0.0 | 0.0 | 0.00 | 0.33 | 0.33 | 96 | 1009.0 |
| 20260904082519 | 14 | 110 | 0.0 | 0.0 | 0.00 | 0.33 | 0.33 | 96 | 1009.0 |
| 20260904082019 | 14 | 110 | 0.0 | 0.0 | 0.00 | 0.33 | 0.33 | 96 | 1008.9 |
| 20260904081519 | 14 | 110 | 0.0 | 0.0 | 0.00 | 0.33 | 0.33 | 96 | 1008.9 |
| 20260904081001 | 14 | 111 | 0.0 | 0.0 | 0.00 | 0.33 | 0.33 | 97 | 1009.0 |
| 20260904080600 | 14 | 111 | 0.0 | 0.0 | 0.00 | 0.33 | 0.33 | 97 | 1009.0 |
| 20260904080501 | 14 | 111 | 0.0 | 0.0 | 0.00 | 0.33 | 0.33 | 97 | 1009.0 |
| 20260904080106 | 14 | 60 | 0.0 | 0.0 | 0.00 | 0.33 | 0.33 | 96 | 1008.9 |
| 20260904075601 | 15 | 60 | 0.0 | 0.0 | 0.00 | 0.33 | 0.33 | 97 | 1008.8 |
| 20260904075059 | 14 | 70 | 0.0 | 0.0 | 0.00 | 0.33 | 0.33 | 96 | 1008.8 |
| 20260904074607 | 14 | 48 | 0.0 | 0.0 | 0.00 | 0.33 | 0.33 | 96 | 1008.8 |
| 20260904074042 | 14 | 48 | 0.0 | 0.0 | 0.00 | 0.33 | 0.33 | 96 | 1009.0 |
| 20260904073542 | 14 | 48 | 0.0 | 0.0 | 0.00 | 0.33 | 0.33 | 96 | 1009.0 |
| 20260904073051 | 15 | 48 | 0.0 | 0.0 | 0.00 | 0.33 | 0.33 | 96 | 1009.1 |
| 20260904072542 | 15 | 48 | 0.0 | 0.0 | 0.00 | 0.33 | 0.33 | 96 | 1009.3 |
| 20260904072042 | 15 | 49 | 0.0 | 1.6 | 0.00 | 0.33 | 0.33 | 97 | 1009.2 |
| 20260904071544 | 15 | 70 | 0.0 | 1.6 | 0.00 | 0.33 | 0.33 | 97 | 1009.2 |
| 20260904071026 | 14 | 256 | 0.0 | 1.6 | 0.00 | 0.33 | 0.33 | 96 | 1009.0 |
| 20260904070523 | 14 | 259 | 0.0 | 1.6 | 0.00 | 0.33 | 0.33 | 96 | 1008.7 |
| 20260904070024 | 15 | 243 | 0.0 | 1.6 | 0.00 | 0.33 | 0.33 | 96 | 1008.8 |
| 20260904065525 | 15 | 179 | 0.0 | 1.6 | 0.00 | 0.33 | 0.33 | 96 | 1009.0 |
| 20260904065022 | 15 | 243 | 0.0 | 0.0 | 0.00 | 0.33 | 0.33 | 96 | 1009.2 |
| 20260904064524 | 15 | 260 | 0.0 | 0.0 | 0.00 | 0.33 | 0.33 | 95 | 1009.4 |
| 20260904064003 | 15 | 249 | 0.0 | 0.0 | 0.00 | 0.33 | 0.33 | 95 | 1009.5 |
| 20260904063502 | 15 | 243 | 0.0 | 0.0 | 0.03 | 0.33 | 0.33 | 95 | 1009.5 |
| 20260904063002 | 15 | 278 | 0.0 | 0.0 | 0.03 | 0.33 | 0.33 | 94 | 1009.6 |
| 20260904062502 | 15 | 314 | 0.0 | 0.0 | 0.03 | 0.33 | 0.33 | 94 | 1009.5 |
| 20260904062001 | 15 | 78 | 0.0 | 0.0 | 0.05 | 0.33 | 0.33 | 93 | 1009.6 |
| 20260904061600 | 15 | 77 | 0.0 | 0.0 | 0.05 | 0.33 | 0.33 | 92 | 1009.7 |
| 20260904061042 | 15 | 77 | 0.0 | 0.0 | 0.05 | 0.33 | 0.33 | 91 | 1010.1 |
| 20260904060543 | 15 | 77 | 0.0 | 0.0 | 0.05 | 0.33 | 0.33 | 90 | 1010.0 |
| 20260904055541 | 15 | 77 | 0.0 | 0.0 | 0.05 | 0.33 | 0.33 | 91 | 1009.9 |
| 20260904055044 | 15 | 78 | 0.0 | 0.0 | 0.05 | 0.33 | 0.33 | 91 | 1009.9 |
| 20260904054550 | 16 | 77 | 0.0 | 0.0 | 0.05 | 0.33 | 0.33 | 90 | 1010.0 |
| 20260904054026 | 16 | 70 | 0.0 | 0.0 | 0.05 | 0.33 | 0.33 | 89 | 1010.2 |
| 20260904053521 | 16 | 61 | 0.0 | 0.0 | 0.05 | 0.30 | 0.30 | 89 | 1010.3 |
| 20260904053022 | 16 | 61 | 0.0 | 1.6 | 0.05 | 0.30 | 0.30 | 87 | 1010.4 |
| 20260904052527 | 16 | 74 | 0.0 | 1.6 | 0.05 | 0.30 | 0.30 | 85 | 1010.6 |
| 20260904052019 | 16 | 77 | 0.0 | 1.6 | 0.03 | 0.28 | 0.28 | 84 | 1010.7 |
| 20260904051519 | 17 | 49 | 0.0 | 3.2 | 0.00 | 0.25 | 0.25 | 81 | 1010.7 |
| 20260904051001 | 17 | 64 | 0.0 | 9.7 | 0.00 | 0.25 | 0.25 | 78 | 1010.6 |
| 20260904050502 | 17 | 169 | 0.0 | 9.7 | 0.00 | 0.25 | 0.25 | 76 | 1010.5 |
| 20260904050001 | 17 | 161 | 0.0 | 3.2 | 0.00 | 0.25 | 0.25 | 78 | 1010.4 |
| 20260904045501 | 17 | 108 | 0.0 | 8.0 | 0.00 | 0.25 | 0.25 | 77 | 1010.3 |
| 20260904045004 | 17 | 37 | 0.0 | 9.7 | 0.00 | 0.25 | 0.25 | 78 | 1010.0 |
| 20260904044501 | 17 | 59 | 1.6 | 9.7 | 0.00 | 0.25 | 0.25 | 79 | 1009.9 |
| 20260904044100 | 17 | 61 | 0.0 | 9.7 | 0.00 | 0.25 | 0.25 | 79 | 1009.9 |
| 20260904043547 | 17 | 165 | 1.6 | 9.7 | 0.00 | 0.25 | 0.25 | 80 | 1009.9 |
| 20260904043043 | 17 | 68 | 1.6 | 8.0 | 0.00 | 0.25 | 0.25 | 80 | 1009.9 |
| 20260904042543 | 17 | 56 | 1.6 | 9.7 | 0.00 | 0.25 | 0.25 | 81 | 1009.8 |
| 20260904042043 | 17 | 72 | 1.6 | 14.5 | 0.00 | 0.25 | 0.25 | 80 | 1009.6 |
| 20260904041544 | 17 | 127 | 1.6 | 19.3 | 0.00 | 0.25 | 0.25 | 81 | 1009.6 |
| 20260904041042 | 17 | 37 | 4.8 | 19.3 | 0.00 | 0.25 | 0.25 | 81 | 1009.4 |
| 20260904040524 | 17 | 48 | 3.2 | 14.5 | 0.00 | 0.25 | 0.25 | 85 | 1009.3 |
| 20260904040038 | 17 | 89 | 0.0 | 3.2 | 0.03 | 0.25 | 0.25 | 87 | 1009.3 |
| 20260904035525 | 17 | 66 | 0.0 | 3.2 | 0.05 | 0.25 | 0.25 | 87 | 1009.1 |
| 20260904035028 | 17 | 146 | 0.0 | 1.6 | 0.05 | 0.25 | 0.25 | 87 | 1008.7 |
| 20260904034524 | 17 | 91 | 0.0 | 3.2 | 0.05 | 0.25 | 0.25 | 88 | 1008.6 |
| 20260904034024 | 17 | 61 | 0.0 | 4.8 | 0.05 | 0.25 | 0.25 | 88 | 1008.5 |
| 20260904033506 | 17 | 70 | 0.0 | 6.4 | 0.05 | 0.25 | 0.25 | 89 | 1008.5 |
| 20260904033006 | 17 | 85 | 0.0 | 6.4 | 0.05 | 0.25 | 0.25 | 89 | 1008.5 |
| 20260904032505 | 17 | 76 | 0.0 | 4.8 | 0.05 | 0.25 | 0.25 | 89 | 1008.4 |
| 20260904032005 | 17 | 107 | 0.0 | 6.4 | 0.05 | 0.25 | 0.25 | 89 | 1008.4 |
| 20260904031505 | 17 | 56 | 0.0 | 6.4 | 0.05 | 0.25 | 0.25 | 88 | 1008.6 |
| 20260904031005 | 18 | 59 | 0.0 | 4.8 | 0.05 | 0.25 | 0.25 | 87 | 1008.6 |
| 20260904030547 | 18 | 67 | 0.0 | 4.8 | 0.05 | 0.25 | 0.25 | 87 | 1008.7 |
| 20260904030047 | 18 | 70 | 0.0 | 1.6 | 0.05 | 0.23 | 0.23 | 85 | 1008.7 |
| 20260904025551 | 19 | 114 | 0.0 | 0.0 | 0.03 | 0.23 | 0.23 | 83 | 1008.5 |
| 20260904025047 | 19 | 114 | 0.0 | 0.0 | 0.00 | 0.20 | 0.20 | 82 | 1008.4 |
| 20260904024553 | 19 | 110 | 0.0 | 0.0 | 0.00 | 0.20 | 0.20 | 81 | 1008.4 |
| 20260904024048 | 19 | 67 | 0.0 | 0.0 | 0.00 | 0.20 | 0.20 | 79 | 1008.4 |
| 20260904023530 | 19 | 67 | 0.0 | 0.0 | 0.00 | 0.20 | 0.20 | 78 | 1008.3 |
| 20260904023036 | 19 | 66 | 0.0 | 0.0 | 0.00 | 0.20 | 0.20 | 79 | 1008.3 |
| 20260904022533 | 19 | 67 | 0.0 | 0.0 | 0.00 | 0.20 | 0.20 | 78 | 1008.3 |
| 20260904022029 | 19 | 66 | 0.0 | 0.0 | 0.00 | 0.20 | 0.20 | 78 | 1008.5 |
| 20260904021543 | 19 | 252 | 0.0 | 0.0 | 0.00 | 0.20 | 0.20 | 78 | 1008.5 |
| 20260904021028 | 19 | 252 | 0.0 | 0.0 | 0.00 | 0.20 | 0.20 | 77 | 1008.1 |
| 20260904020512 | 19 | 247 | 0.0 | 1.6 | 0.00 | 0.20 | 0.20 | 76 | 1008.0 |
| 20260904020012 | 19 | 271 | 0.0 | 1.6 | 0.00 | 0.20 | 0.20 | 76 | 1007.8 |
| 20260904015510 | 19 | 259 | 0.0 | 1.6 | 0.00 | 0.20 | 0.20 | 76 | 1007.8 |
| 20260904015014 | 19 | 236 | 0.0 | 1.6 | 0.00 | 0.20 | 0.20 | 76 | 1007.7 |
| 20260904014511 | 19 | 239 | 0.0 | 1.6 | 0.00 | 0.20 | 0.20 | 76 | 1007.6 |
| 20260904014011 | 19 | 238 | 0.0 | 1.6 | 0.00 | 0.20 | 0.20 | 77 | 1007.5 |
| 20260904013601 | 19 | 236 | 0.0 | 0.0 | 0.00 | 0.20 | 0.20 | 76 | 1007.5 |
| 20260904013122 | 19 | 236 | 0.0 | 1.6 | 0.00 | 0.20 | 0.20 | 75 | 1007.5 |
| 20260904012602 | 20 | 236 | 0.0 | 1.6 | 0.00 | 0.20 | 0.20 | 74 | 1007.5 |
| 20260904012058 | 20 | 236 | 0.0 | 0.0 | 0.00 | 0.20 | 0.20 | 74 | 1007.4 |
| 20260904011557 | 20 | 236 | 0.0 | 0.0 | 0.00 | 0.20 | 0.20 | 73 | 1007.3 |
| 20260904011058 | 20 | 236 | 0.0 | 0.0 | 0.00 | 0.20 | 0.20 | 74 | 1007.3 |
| 20260904010558 | 20 | 236 | 0.0 | 0.0 | 0.00 | 0.20 | 0.20 | 74 | 1007.1 |
| 20260904010057 | 20 | 236 | 0.0 | 0.0 | 0.00 | 0.20 | 0.20 | 72 | 1007.0 |
| 20260904005556 | 20 | 236 | 0.0 | 0.0 | 0.00 | 0.20 | 0.20 | 73 | 1006.9 |
| 20260904005056 | 20 | 236 | 0.0 | 0.0 | 0.00 | 0.20 | 0.20 | 73 | 1006.8 |
| 20260904004557 | 20 | 236 | 0.0 | 0.0 | 0.00 | 0.20 | 0.20 | 72 | 1006.7 |
| 20260904004057 | 20 | 236 | 0.0 | 0.0 | 0.00 | 0.20 | 0.20 | 73 | 1006.5 |
| 20260904003557 | 20 | 236 | 0.0 | 0.0 | 0.00 | 0.20 | 0.20 | 73 | 1006.4 |
| 20260904003056 | 21 | 236 | 0.0 | 0.0 | 0.00 | 0.20 | 0.20 | 73 | 1006.2 |
| 20260904002556 | 21 | 233 | 0.0 | 0.0 | 0.00 | 0.20 | 0.20 | 73 | 1006.1 |
| 20260904002056 | 21 | 297 | 0.0 | 0.0 | 0.00 | 0.20 | 0.20 | 71 | 1006.1 |
| 20260904001607 | 21 | 284 | 0.0 | 0.0 | 0.00 | 0.20 | 0.20 | 71 | 1006.1 |
| 20260904001055 | 21 | 346 | 0.0 | 0.0 | 0.00 | 0.20 | 0.20 | 69 | 1006.2 |
| 20260904000558 | 21 | 303 | 0.0 | 0.0 | 0.00 | 0.20 | 0.20 | 68 | 1006.1 |
| 20260904000056 | 22 | 316 | 0.0 | 0.0 | 0.00 | 0.20 | 0.20 | 67 | 1006.1 |
| 20260903235554 | 22 | 51 | 0.0 | 0.0 | 0.00 | 0.20 | 0.20 | 65 | 1006.1 |
| 20260903235054 | 23 | 49 | 0.0 | 0.0 | 0.00 | 0.20 | 0.20 | 64 | 1006.0 |
| 20260903234556 | 23 | 271 | 0.0 | 0.0 | 0.00 | 0.20 | 0.20 | 65 | 1005.9 |
| 20260903234054 | 23 | 271 | 0.0 | 0.0 | 0.00 | 0.20 | 0.20 | 64 | 1005.9 |
| 20260903233538 | 23 | 269 | 0.0 | 0.0 | 0.00 | 0.20 | 0.20 | 68 | 1005.8 |
| 20260903233042 | 22 | 270 | 0.0 | 0.0 | 0.00 | 0.20 | 0.20 | 69 | 1005.8 |
| 20260903232536 | 22 | 271 | 0.0 | 0.0 | 0.00 | 0.20 | 0.20 | 77 | 1005.8 |
| 20260903232036 | 21 | 271 | 0.0 | 0.0 | 0.00 | 0.20 | 0.20 | 91 | 1005.8 |
| 20260903231540 | 20 | 338 | 0.0 | 0.0 | 0.00 | 0.20 | 0.20 | 98 | 1005.8 |
| 20260903231036 | 20 | 307 | 0.0 | 0.0 | 0.00 | 0.20 | 0.20 | 98 | 1005.8 |
| 20260903230523 | 19 | 316 | 0.0 | 0.0 | 0.00 | 0.20 | 0.20 | 97 | 1005.6 |
| 20260903230024 | 19 | 353 | 0.0 | 0.0 | 0.00 | 0.20 | 0.20 | 98 | 1005.5 |
| 20260903225518 | 18 | 5 | 0.0 | 0.0 | 0.00 | 0.20 | 0.20 | 97 | 1005.5 |
| 20260903225019 | 18 | 75 | 0.0 | 0.0 | 0.00 | 0.20 | 0.20 | 97 | 1005.4 |
| 20260903224524 | 18 | 75 | 0.0 | 0.0 | 0.00 | 0.20 | 0.20 | 98 | 1005.5 |
| 20260903224019 | 17 | 75 | 0.0 | 0.0 | 0.03 | 0.20 | 0.20 | 98 | 1005.5 |
| 20260903223558 | 17 | 75 | 0.0 | 0.0 | 0.05 | 0.20 | 0.20 | 98 | 1005.5 |
| 20260903223058 | 18 | 75 | 0.0 | 0.0 | 0.10 | 0.20 | 0.20 | 98 | 1005.6 |
| 20260903222557 | 17 | 75 | 0.0 | 0.0 | 0.18 | 0.20 | 0.20 | 98 | 1005.7 |
| 20260903222057 | 17 | 75 | 0.0 | 0.0 | 0.20 | 0.20 | 0.20 | 98 | 1005.8 |
| 20260903221557 | 17 | 75 | 0.0 | 3.2 | 0.20 | 0.20 | 0.20 | 98 | 1005.9 |
| 20260903221056 | 17 | 138 | 0.0 | 3.2 | 0.20 | 0.20 | 0.20 | 98 | 1005.9 |
| 20260903220540 | 17 | 53 | 0.0 | 0.0 | 0.20 | 0.20 | 0.20 | 98 | 1005.9 |
| 20260903220037 | 17 | 53 | 0.0 | 0.0 | 0.20 | 0.20 | 0.20 | 98 | 1006.1 |
| 20260903215536 | 17 | 53 | 0.0 | 0.0 | 0.20 | 0.20 | 0.20 | 98 | 1006.0 |
| 20260903215038 | 17 | 22 | 0.0 | 0.0 | 0.20 | 0.20 | 0.20 | 98 | 1006.1 |
| 20260903214538 | 16 | 67 | 0.0 | 1.6 | 0.20 | 0.20 | 0.20 | 97 | 1006.2 |
| 20260903214038 | 16 | 67 | 0.0 | 1.6 | 0.18 | 0.18 | 0.18 | 95 | 1006.3 |
| 20260903213518 | 17 | 75 | 0.0 | 3.2 | 0.15 | 0.15 | 0.15 | 91 | 1006.5 |
| 20260903213014 | 18 | 98 | 0.0 | 14.5 | 0.08 | 0.08 | 0.08 | 79 | 1006.6 |
| 20260903212515 | 20 | 39 | 0.0 | 14.5 | 0.03 | 0.03 | 0.03 | 73 | 1006.6 |
| 20260903212015 | 22 | 20 | 0.0 | 4.8 | 0.00 | 0.00 | 0.00 | 65 | 1006.4 |
| 20260903211513 | 22 | 55 | 0.0 | 4.8 | 0.00 | 0.00 | 0.00 | 59 | 1006.5 |
| 20260903211013 | 23 | 233 | 0.0 | 1.6 | 0.00 | 0.00 | 0.00 | 57 | 1006.5 |
| 20260903210616 | 23 | 232 | 0.0 | 8.0 | 0.00 | 0.00 | 0.00 | 57 | 1006.4 |
| 20260903210058 | 23 | 231 | 0.0 | 8.0 | 0.00 | 0.00 | 0.00 | 55 | 1006.4 |
| 20260903205555 | 23 | 246 | 0.0 | 0.0 | 0.00 | 0.00 | 0.00 | 56 | 1006.4 |
| 20260903205055 | 24 | 295 | 0.0 | 1.6 | 0.00 | 0.00 | 0.00 | 55 | 1006.5 |
| 20260903204555 | 24 | 233 | 0.0 | 3.2 | 0.00 | 0.00 | 0.00 | 54 | 1006.4 |
| 20260903204054 | 25 | 250 | 0.0 | 3.2 | 0.00 | 0.00 | 0.00 | 54 | 1006.4 |
| 20260903203554 | 25 | 253 | 0.0 | 1.6 | 0.00 | 0.00 | 0.00 | 54 | 1006.4 |
| 20260903203041 | 25 | 234 | 0.0 | 1.6 | 0.00 | 0.00 | 0.00 | 56 | 1006.5 |
| 20260903202535 | 25 | 239 | 0.0 | 14.5 | 0.00 | 0.00 | 0.00 | 54 | 1006.6 |
| 20260903202034 | 25 | 249 | 4.8 | 16.1 | 0.00 | 0.00 | 0.00 | 54 | 1006.7 |
| 20260903201534 | 25 | 293 | 0.0 | 1.6 | 0.00 | 0.00 | 0.00 | 53 | 1006.9 |
| 20260903201031 | 25 | 285 | 0.0 | 1.6 | 0.00 | 0.00 | 0.00 | 58 | 1007.1 |
| 20260903200529 | 25 | 210 | 0.0 | 14.5 | 0.00 | 0.00 | 0.00 | 56 | 1007.2 |
| 20260903200010 | 25 | 207 | 0.0 | 14.5 | 0.00 | 0.00 | 0.00 | 58 | 1007.4 |
| 20260903195512 | 25 | 259 | 0.0 | 11.3 | 0.00 | 0.00 | 0.00 | 58 | 1007.5 |
| 20260903195013 | 24 | 241 | 0.0 | 14.5 | 0.00 | 0.00 | 0.00 | 60 | 1007.5 |
| 20260903194508 | 24 | 258 | 1.6 | 14.5 | 0.00 | 0.00 | 0.00 | 59 | 1007.6 |
| 20260903194008 | 23 | 241 | 0.0 | 1.6 | 0.00 | 0.00 | 0.00 | 62 | 1007.6 |
| 20260903193505 | 23 | 250 | 0.0 | 1.6 | 0.00 | 0.00 | 0.00 | 62 | 1007.8 |
| 20260903193048 | 23 | 266 | 0.0 | 1.6 | 0.00 | 0.00 | 0.00 | 63 | 1007.7 |
| 20260903192549 | 23 | 229 | 0.0 | 1.6 | 0.00 | 0.00 | 0.00 | 63 | 1007.8 |
| 20260903192048 | 23 | 248 | 0.0 | 1.6 | 0.00 | 0.00 | 0.00 | 63 | 1007.9 |
| 20260903191546 | 24 | 252 | 0.0 | 1.6 | 0.00 | 0.00 | 0.00 | 59 | 1008.0 |
| 20260903191047 | 24 | 258 | 0.0 | 1.6 | 0.00 | 0.00 | 0.00 | 60 | 1008.1 |
| 20260903190544 | 23 | 250 | 0.0 | 1.6 | 0.00 | 0.00 | 0.00 | 63 | 1008.2 |
| 20260903190026 | 23 | 235 | 0.0 | 1.6 | 0.00 | 0.00 | 0.00 | 65 | 1008.3 |
| 20260903185524 | 23 | 263 | 0.0 | 1.6 | 0.00 | 0.00 | 0.00 | 65 | 1008.4 |
| 20260903185024 | 23 | 260 | 0.0 | 1.6 | 0.00 | 0.00 | 0.00 | 64 | 1008.7 |
| 20260903184523 | 23 | 262 | 0.0 | 1.6 | 0.00 | 0.00 | 0.00 | 61 | 1008.7 |
| 20260903184023 | 23 | 240 | 0.0 | 1.6 | 0.00 | 0.00 | 0.00 | 61 | 1008.8 |
| 20260903183522 | 23 | 360 | 0.0 | 0.0 | 0.00 | 0.00 | 0.00 | 58 | 1008.9 |
| 20260903183007 | 23 | 288 | 0.0 | 4.8 | 0.00 | 0.00 | 0.00 | 61 | 1009.1 |
| 20260903182502 | 23 | 27 | 0.0 | 3.2 | 0.00 | 0.00 | 0.00 | 60 | 1009.2 |
| 20260903182101 | 23 | 277 | 0.0 | 1.6 | 0.00 | 0.00 | 0.00 | 60 | 1009.3 |
| 20260903181601 | 23 | 303 | 0.0 | 1.6 | 0.00 | 0.00 | 0.00 | 60 | 1009.4 |
| 20260903181059 | 23 | 259 | 0.0 | 1.6 | 0.00 | 0.00 | 0.00 | 59 | 1009.7 |
| 20260903180559 | 24 | 266 | 0.0 | 0.0 | 0.00 | 0.00 | 0.00 | 59 | 1009.8 |
| 20260903180039 | 24 | 246 | 0.0 | 1.6 | 0.00 | 0.00 | 0.00 | 61 | 1009.9 |
| 20260903175538 | 23 | 170 | 0.0 | 1.6 | 0.00 | 0.00 | 0.00 | 58 | 1010.1 |
| 20260903175037 | 23 | 256 | 0.0 | 1.6 | 0.00 | 0.00 | 0.00 | 60 | 1010.2 |
| 20260903174536 | 23 | 257 | 0.0 | 0.0 | 0.00 | 0.00 | 0.00 | 60 | 1010.3 |
| 20260903174035 | 23 | 255 | 0.0 | 0.0 | 0.00 | 0.00 | 0.00 | 61 | 1010.4 |
| 20260903173534 | 23 | 162 | 0.0 | 0.0 | 0.00 | 0.00 | 0.00 | 60 | 1010.6 |
| 20260903173015 | 23 | 130 | 0.0 | 0.0 | 0.00 | 0.00 | 0.00 | 61 | 1010.6 |
| 20260903172513 | 22 | 47 | 0.0 | 0.0 | 0.00 | 0.00 | 0.00 | 63 | 1010.6 |
| 20260903172012 | 22 | 82 | 0.0 | 1.6 | 0.00 | 0.00 | 0.00 | 64 | 1010.7 |
| 20260903171511 | 21 | 62 | 0.0 | 1.6 | 0.00 | 0.00 | 0.00 | 62 | 1010.8 |
| 20260903171011 | 21 | 53 | 0.0 | 0.0 | 0.00 | 0.00 | 0.00 | 64 | 1010.9 |
| 20260903170509 | 21 | 69 | 0.0 | 1.6 | 0.00 | 0.00 | 0.00 | 65 | 1010.9 |
| 20260903170054 | 21 | 23 | 0.0 | 1.6 | 0.00 | 0.00 | 0.00 | 63 | 1011.0 |
| 20260903165551 | 21 | 39 | 0.0 | 1.6 | 0.00 | 0.00 | 0.00 | 64 | 1011.1 |
| 20260903165049 | 21 | 246 | 0.0 | 0.0 | 0.00 | 0.00 | 0.00 | 65 | 1011.1 |
| 20260903164549 | 21 | 246 | 0.0 | 0.0 | 0.00 | 0.00 | 0.00 | 68 | 1011.2 |
| 20260903164047 | 21 | 246 | 0.0 | 0.0 | 0.00 | 0.00 | 0.00 | 70 | 1011.1 |
| 20260903163545 | 20 | 245 | 0.0 | 0.0 | 0.00 | 0.00 | 0.00 | 72 | 1011.1 |
| 20260903163027 | 20 | 238 | 0.0 | 0.0 | 0.00 | 0.00 | 0.00 | 74 | 1011.2 |
| 20260903162525 | 20 | 236 | 0.0 | 1.6 | 0.00 | 0.00 | 0.00 | 78 | 1011.2 |
| 20260903162026 | 19 | 236 | 0.0 | 1.6 | 0.00 | 0.00 | 0.00 | 77 | 1011.2 |
| 20260903161522 | 18 | 262 | 0.0 | 1.6 | 0.00 | 0.00 | 0.00 | 78 | 1011.2 |
| 20260903161022 | 18 | 250 | 0.0 | 0.0 | 0.00 | 0.00 | 0.00 | 80 | 1011.3 |
| 20260903160522 | 18 | 226 | 0.0 | 0.0 | 0.00 | 0.00 | 0.00 | 79 | 1011.2 |
| 20260903160002 | 18 | 226 | 0.0 | 0.0 | 0.00 | 0.00 | 0.00 | 79 | 1011.1 |
| 20260903155602 | 18 | 226 | 0.0 | 0.0 | 0.00 | 0.00 | 0.00 | 81 | 1011.1 |
| 20260903155100 | 18 | 226 | 0.0 | 0.0 | 0.00 | 0.00 | 0.00 | 81 | 1011.2 |
| 20260903154600 | 18 | 224 | 0.0 | 0.0 | 0.00 | 0.00 | 0.00 | 81 | 1011.2 |
| 20260903154101 | 17 | 256 | 0.0 | 0.0 | 0.00 | 0.00 | 0.00 | 84 | 1011.3 |
| 20260903153602 | 17 | 256 | 0.0 | 0.0 | 0.00 | 0.00 | 0.00 | 86 | 1011.2 |
| 20260903153042 | 17 | 256 | 0.0 | 0.0 | 0.00 | 0.00 | 0.00 | 87 | 1011.3 |
| 20260903152541 | 17 | 256 | 0.0 | 0.0 | 0.00 | 0.00 | 0.00 | 87 | 1011.3 |
| 20260903152043 | 16 | 255 | 0.0 | 0.0 | 0.00 | 0.00 | 0.00 | 88 | 1011.3 |
| 20260903151542 | 16 | 256 | 0.0 | 0.0 | 0.00 | 0.00 | 0.00 | 88 | 1011.5 |
| 20260903151041 | 16 | 257 | 0.0 | 0.0 | 0.00 | 0.00 | 0.00 | 88 | 1011.5 |
| 20260903150541 | 16 | 257 | 0.0 | 0.0 | 0.00 | 0.00 | 0.00 | 89 | 1011.5 |
| 20260903150024 | 16 | 257 | 0.0 | 0.0 | 0.00 | 0.00 | 0.00 | 89 | 1011.5 |
| 20260903145522 | 16 | 257 | 0.0 | 0.0 | 0.00 | 0.00 | 0.00 | 90 | 1011.5 |
| 20260903145025 | 16 | 257 | 0.0 | 0.0 | 0.00 | 0.00 | 0.00 | 90 | 1011.5 |
| 20260903144522 | 16 | 256 | 0.0 | 0.0 | 0.00 | 0.00 | 0.00 | 91 | 1011.5 |
| 20260903144021 | 16 | 256 | 0.0 | 0.0 | 0.00 | 0.00 | 0.00 | 91 | 1011.4 |
| 20260903143522 | 16 | 287 | 0.0 | 0.0 | 0.00 | 0.00 | 0.00 | 91 | 1011.4 |
| 20260903143010 | 16 | 272 | 0.0 | 0.0 | 0.00 | 0.00 | 0.00 | 92 | 1011.5 |
| 20260903142512 | 15 | 271 | 0.0 | 0.0 | 0.00 | 0.00 | 0.00 | 92 | 1011.5 |
| 20260903142009 | 15 | 269 | 0.0 | 0.0 | 0.00 | 0.00 | 0.00 | 92 | 1011.5 |
| 20260903141511 | 15 | 264 | 0.0 | 0.0 | 0.00 | 0.00 | 0.00 | 93 | 1011.3 |
| 20260903141009 | 15 | 290 | 0.0 | 0.0 | 0.00 | 0.00 | 0.00 | 93 | 1011.4 |
| 20260903140509 | 15 | 290 | 0.0 | 0.0 | 0.00 | 0.00 | 0.00 | 93 | 1011.4 |
| 20260903140012 | 15 | 290 | 0.0 | 0.0 | 0.00 | 0.00 | 0.00 | 93 | 1011.4 |
| 20260903135508 | 15 | 5 | 0.0 | 0.0 | 0.00 | 0.00 | 0.00 | 93 | 1011.3 |
| 20260903135008 | 15 | 6 | 0.0 | 0.0 | 0.00 | 0.00 | 0.00 | 93 | 1011.3 |
| 20260903134509 | 15 | 6 | 0.0 | 0.0 | 0.00 | 0.00 | 0.00 | 93 | 1011.3 |
| 20260903134009 | 14 | 6 | 0.0 | 0.0 | 0.00 | 0.00 | 0.00 | 94 | 1011.3 |
| 20260903133507 | 14 | 6 | 0.0 | 0.0 | 0.00 | 0.00 | 0.00 | 94 | 1011.2 |
| 20260903133007 | 14 | 6 | 0.0 | 0.0 | 0.00 | 0.00 | 0.00 | 94 | 1011.2 |
| 20260903132508 | 14 | 6 | 0.0 | 0.0 | 0.00 | 0.00 | 0.00 | 94 | 1011.3 |
| 20260903132006 | 14 | 6 | 0.0 | 0.0 | 0.00 | 0.00 | 0.00 | 93 | 1011.3 |
| 20260903131505 | -17 | 0.0 | 0.0 | 0.00 | 0.00 | 0.00 | 1011.2 | ||
| 20260903131004 | -17 | 0.0 | 0.0 | 0.00 | 0.00 | 0.00 | 1011.2 | ||
| 20260903130503 | -17 | 0.0 | 0.0 | 0.00 | 0.00 | 0.00 | 1011.2 | ||
| 20260903130001 | -17 | 0.0 | 0.0 | 0.00 | 0.00 | 0.00 | 1011.1 | ||
| 20260903125600 | -17 | 0.0 | 0.0 | 0.00 | 0.00 | 0.00 | 1011.0 | ||
| 20260903125059 | -17 | 0.0 | 0.0 | 0.00 | 0.00 | 0.00 | 1011.0 | ||
| 20260903124558 | -17 | 0.0 | 0.0 | 0.00 | 0.00 | 0.00 | 1011.1 | ||
| 20260903124054 | -17 | 0.0 | 0.0 | 0.00 | 0.00 | 0.00 | 1011.1 | ||
| 20260903123554 | -17 | 0.0 | 0.0 | 0.00 | 0.00 | 0.00 | 1011.1 | ||
| 20260903123053 | -17 | 0.0 | 0.0 | 0.00 | 0.00 | 0.00 | 1010.9 | ||
| 20260903122533 | -17 | 0.0 | 0.0 | 0.00 | 0.00 | 0.00 | 1010.8 | ||
| 20260903122032 | -17 | 0.0 | 0.0 | 0.00 | 0.00 | 0.00 | 1010.9 | ||
| 20260903121540 | -17 | 0.0 | 0.0 | 0.00 | 0.00 | 0.00 | 1010.9 | ||
| 20260903121030 | -17 | 0.0 | 0.0 | 0.00 | 0.00 | 0.00 | 1010.8 | ||
| 20260903120532 | -17 | 0.0 | 0.0 | 0.00 | 0.00 | 0.00 | 1010.9 | ||
| 20260903120033 | -17 | 0.0 | 0.0 | 0.00 | 0.00 | 0.00 | 1010.9 | ||
| 20260903115511 | -17 | 0.0 | 0.0 | 0.00 | 0.00 | 0.00 | 1010.9 | ||
| 20260903115005 | -17 | 0.0 | 0.0 | 0.00 | 0.00 | 0.00 | 1010.8 | ||
| 20260903114505 | -17 | 0.0 | 0.0 | 0.00 | 0.00 | 0.00 | 1010.8 | ||
| 20260903114004 | -17 | 0.0 | 0.0 | 0.00 | 0.00 | 0.00 | 1010.8 | ||
| 20260903113502 | -17 | 0.0 | 0.0 | 0.00 | 0.00 | 0.00 | 1010.8 | ||
| 20260903113103 | -17 | 0.0 | 0.0 | 0.00 | 0.00 | 0.00 | 1010.8 |